Wind_Speed
27 24 23 21 18 15 12 10 10 12 11 11 12 14 15 15 16 16 16 16 16 16 16 16 17 17 16 15 15 14 14 14 14 14 14 14 14 14 13 13 12 12 11 11 12 11 12 12 12 13 12 13 15 15 15 15 15 15 15 15 15 15 15 15 14 14 13 14 13 13 13 12 10 9 8 9 10 12 13 12 13 13 13 13 12
30 26 24 22 18 16 12 11 11 12 11 12 12 13 15 16 16 16 16 17 17 17 17 17 16 16 15 14 14 13 14 14 13 13 14 13 13 12 12 11 11 10 10 10 10 10 10 10 11 13 13 14 15 15 15 15 15 15 15 15 16 16 15 14 13 13 12 12 12 12 11 9 9 9 7 8 9 10 11 11 12 12 11 12 11
30 28 25 22 19 16 13 11 11 12 12 12 12 13 15 16 16 16 17 17 17 17 16 15 15 14 13 13 12 12 13 13 13 13 13 12 11 11 11 10 9 9 8 8 8 8 8 7 10 14 13 14 15 15 15 15 15 14 14 14 15 14 14 12 11 10 9 10 10 10 10 8 8 8 6 7 8 9 10 10 11 11 10 10 9
30 29 26 23 19 17 13 12 12 12 12 12 13 13 14 15 16 17 17 17 17 16 15 14 13 12 12 11 11 11 12 12 12 12 12 11 11 10 10 9 8 7 7 7 7 7 7 7 12 16 14 12 13 14 14 14 14 14 13 12 12 11 10 8 7 6 6 8 8 8 8 7 7 7 6 6 6 7 9 9 9 9 9 8 8
30 29 26 23 20 17 14 13 12 12 12 13 13 14 14 15 16 17 16 16 16 15 13 12 11 11 11 11 11 11 10 10 10 10 10 10 9 9 8 8 7 6 5 6 6 6 6 8 15 16 13 12 11 12 12 12 11 11 10 10 9 7 6 5 4 3 4 6 8 8 8 7 7 8 7 6 5 5 6 6 6 6 6 6 6
30 29 26 23 20 17 14 13 13 12 12 13 14 14 14 15 16 17 16 16 15 13 12 11 11 11 11 10 10 10 9 9 9 9 9 8 7 6 6 6 6 5 5 5 5 6 8 11 17 16 13 12 10 10 10 9 9 8 8 8 7 6 5 4 4 3 4 6 8 8 8 7 6 7 9 7 6 5 5 5 5 5 6 6 6
29 28 25 22 20 18 15 14 14 13 12 13 14 14 14 14 16 16 16 15 14 12 11 11 11 11 10 9 10 9 8 8 8 8 7 7 7 7 7 8 8 6 4 5 6 7 9 13 16 16 13 11 9 9 9 8 7 6 7 7 6 6 6 6 6 5 6 8 9 9 9 8 6 8 9 8 7 6 6 6 6 6 7 7 7
28 27 24 22 20 18 15 15 14 13 12 13 14 14 14 14 15 16 15 14 13 12 12 11 11 11 10 9 9 8 8 8 7 7 7 7 8 8 8 8 8 7 5 4 6 8 11 13 14 14 13 11 9 8 8 7 6 6 7 7 6 6 7 8 8 8 9 10 9 9 9 8 7 8 8 8 7 7 8 7 7 8 8 9 9
28 26 24 21 19 17 16 15 14 13 12 13 14 14 14 14 14 15 15 14 12 12 12 11 11 10 9 9 8 7 7 7 7 8 8 8 9 9 9 9 9 8 6 4 6 8 11 13 13 13 12 10 8 8 9 9 8 8 9 8 8 9 10 10 10 10 11 11 9 8 7 6 6 7 8 9 9 9 8 8 8 9 9 9 9
27 26 24 21 19 18 16 15 14 13 13 13 13 14 14 14 13 14 14 13 12 12 12 11 11 9 9 9 8 7 7 8 9 9 9 10 10 10 11 10 10 9 8 6 6 8 11 13 13 12 11 10 10 11 12 11 10 10 10 10 11 13 13 12 11 12 11 11 9 7 7 6 5 6 7 9 9 9 9 9 9 9 9 9 8
27 26 24 22 20 18 17 15 14 13 13 13 13 13 13 13 13 13 13 12 12 11 11 12 11 9 9 9 7 7 7 9 9 9 10 10 11 11 12 12 11 10 9 8 8 8 10 12 13 12 11 12 13 14 13 12 12 11 12 13 15 16 16 14 12 12 11 10 9 8 7 5 4 5 6 8 9 9 8 8 9 9 8 8 8
26 26 24 23 20 18 17 15 14 13 13 13 13 13 13 13 13 12 12 12 11 11 11 11 11 9 9 8 7 6 7 9 9 10 11 10 11 12 12 12 12 11 10 9 9 9 9 11 12 11 10 12 14 14 13 12 12 12 13 16 17 18 18 17 15 13 12 10 9 7 6 5 5 6 7 7 8 8 8 8 8 8 7 7 7
26 25 24 23 21 19 17 15 14 13 13 12 12 13 13 13 13 12 11 12 12 11 10 10 10 10 9 8 6 6 7 9 9 10 10 10 11 12 12 12 12 11 11 10 10 10 10 10 10 9 9 11 13 13 12 11 11 12 14 16 18 18 18 18 17 15 14 13 11 9 7 5 5 7 8 8 7 7 7 7 6 6 6 6 6
25 25 24 23 21 19 17 15 14 13 12 12 12 12 13 13 12 12 11 11 11 11 11 10 10 9 8 7 6 6 8 8 9 10 10 10 11 11 12 11 11 11 10 10 10 11 10 10 9 8 7 8 10 11 10 10 11 12 14 15 16 17 18 17 17 17 16 15 14 12 10 8 5 5 8 9 8 7 6 6 5 5 5 5 5
23 24 24 23 21 19 17 15 13 12 12 11 12 12 13 12 12 11 11 11 11 11 11 10 9 9 8 6 5 6 7 8 9 9 9 10 10 10 11 10 10 10 9 9 9 10 10 9 8 6 5 5 7 9 10 9 10 11 12 14 15 15 16 16 16 16 16 15 14 13 12 11 10 8 6 6 7 6 5 5 4 4 4 4 4
23 23 23 23 22 20 18 15 13 12 11 11 11 12 12 12 12 12 11 11 11 11 11 11 10 9 8 6 5 5 7 7 7 8 9 9 9 9 9 9 9 9 8 8 8 9 9 8 7 6 4 3 5 7 8 8 9 10 11 12 13 13 14 15 15 15 15 14 13 12 11 10 10 10 8 7 4 4 4 4 3 2 2 2 3
22 23 23 23 22 20 18 16 14 12 11 12 12 11 12 12 12 12 11 11 11 10 11 11 10 10 9 7 5 5 6 5 6 7 7 8 7 7 8 8 8 8 8 7 7 8 8 8 7 5 4 2 3 5 6 7 8 8 8 9 10 11 12 13 14 14 13 13 12 11 10 10 9 8 8 7 6 4 2 2 1 1 0 1 2
22 23 23 23 22 20 18 17 15 13 12 12 13 12 12 13 12 12 11 10 10 10 9 10 9 9 8 7 5 5 5 4 4 6 6 6 6 6 6 7 7 7 7 6 6 7 7 7 6 5 4 3 1 2 4 5 5 6 7 7 8 9 10 11 12 12 12 12 12 11 10 9 9 9 8 7 6 5 4 2 1 1 1 1 1
22 23 23 22 22 20 19 18 16 14 13 13 13 13 13 13 13 12 11 10 10 10 9 8 8 8 7 6 5 4 4 3 3 4 4 4 5 5 5 5 5 5 5 5 5 6 6 6 6 6 5 4 4 2 1 2 3 4 5 6 6 7 8 9 10 10 10 11 11 11 10 9 9 9 9 8 7 6 5 4 3 3 3 3 2
21 22 23 22 22 21 20 18 17 15 14 13 13 13 13 13 13 12 11 11 10 9 9 8 7 6 5 5 4 3 3 2 2 2 2 3 3 3 3 4 4 4 4 4 5 7 7 7 7 7 7 6 6 5 3 1 0 1 3 4 4 5 6 6 7 8 8 9 10 10 9 9 9 9 9 8 7 6 5 5 4 4 4 4 4
19 21 22 22 22 21 20 19 18 16 14 13 13 13 13 14 13 12 12 11 10 8 7 7 5 4 4 4 3 2 2 1 2 2 2 2 1 1 1 2 2 3 2 3 5 7 9 9 9 8 8 9 9 8 7 5 3 2 0 1 2 3 4 4 4 6 6 8 9 9 9 9 9 9 9 8 8 7 6 5 4 4 4 4 5
18 20 21 22 21 20 20 19 18 17 15 13 13 14 13 14 13 12 11 10 10 8 6 4 3 3 3 4 3 2 0 1 1 2 2 2 2 1 0 1 1 2 2 3 4 7 9 11 11 10 10 11 11 11 10 8 6 4 3 1 2 2 2 2 2 3 5 6 7 8 8 8 8 8 8 8 8 8 7 6 4 4 4 4 5
20 20 20 21 21 20 20 18 18 17 15 14 13 13 12 12 12 11 10 9 8 7 6 4 3 3 3 3 3 2 1 1 2 3 2 2 2 2 1 1 1 2 2 3 4 6 8 11 12 12 12 13 14 13 13 11 10 8 6 4 3 3 3 3 2 2 3 4 5 6 7 8 8 9 9 8 9 9 8 7 6 5 4 4 5
20 20 20 22 21 20 20 18 18 16 15 14 13 12 10 11 11 10 8 7 7 6 6 5 4 3 3 2 2 2 2 1 1 2 3 3 3 3 3 2 1 2 3 3 4 5 7 9 12 14 14 15 16 16 15 14 12 10 9 8 6 5 5 4 3 2 2 2 3 4 5 6 7 9 9 8 8 9 9 9 8 7 6 5 5
19 20 21 21 20 20 19 18 17 15 15 13 11 10 9 10 10 9 8 7 6 6 6 5 4 3 3 3 2 2 2 2 0 1 2 3 3 3 3 3 2 2 2 3 4 5 6 7 9 12 15 16 18 18 17 15 14 13 11 10 9 7 7 6 5 4 3 3 3 3 4 5 6 7 8 8 8 8 9 9 9 9 8 7 6
18 19 20 21 19 19 18 17 16 15 14 12 10 9 9 9 9 9 8 7 7 7 6 6 5 5 4 3 3 3 2 2 1 1 1 2 3 4 4 4 3 3 3 4 4 5 6 8 9 10 12 15 18 20 19 17 16 15 13 12 11 10 9 8 7 7 6 6 5 5 5 4 5 7 8 8 8 8 8 9 10 10 9 9 9
19 19 20 20 19 18 17 16 15 13 12 11 10 9 8 8 8 8 8 8 8 8 7 7 7 6 4 3 2 2 1 1 1 2 2 2 2 3 4 5 5 5 5 5 5 5 6 7 9 10 10 12 15 18 21 20 18 17 16 14 13 12 11 10 9 9 8 8 7 6 6 6 5 7 8 9 9 8 8 9 10 10 10 10 10
19 20 20 19 19 18 17 15 14 12 11 10 9 9 9 8 8 8 9 9 9 8 8 7 6 5 3 2 2 1 1 2 3 3 3 3 4 4 5 5 6 6 6 6 6 6 6 7 9 10 12 12 13 15 18 21 22 20 19 18 16 14 13 12 12 11 10 9 9 8 8 8 7 7 8 9 10 10 9 9 9 10 10 10 9
20 21 20 19 18 18 16 15 13 12 10 10 9 9 9 9 9 10 10 10 9 8 7 6 5 3 2 2 1 1 2 4 5 5 6 6 7 7 7 7 8 8 8 8 8 8 8 8 9 9 12 13 14 15 16 18 21 23 22 21 20 18 16 14 13 13 12 11 11 11 10 10 9 8 9 10 10 10 9 9 9 9 10 9 8
22 21 20 19 18 17 15 14 12 11 10 9 9 9 10 11 11 12 11 9 8 7 6 5 3 2 1 0 1 2 3 5 6 8 9 9 10 9 9 9 9 9 8 9 10 10 10 10 10 10 11 13 15 16 17 17 19 22 23 22 21 20 19 17 16 15 15 14 13 13 12 12 11 9 10 10 11 11 9 9 9 9 9 8 7
22 21 20 18 17 15 14 13 11 11 10 10 10 11 12 13 12 11 10 8 7 6 5 4 3 2 1 1 3 4 5 6 7 8 9 10 11 11 10 10 10 10 10 10 11 12 12 11 11 11 12 13 15 16 18 19 19 21 23 23 23 23 21 20 18 18 18 17 15 15 14 13 12 11 11 11 11 12 11 9 8 8 8 8 7
21 21 19 17 16 14 14 12 11 11 11 11 12 13 13 12 11 10 8 7 6 5 4 3 2 1 2 3 4 4 5 6 7 8 9 10 10 11 11 11 12 12 12 13 12 13 14 13 12 13 14 14 15 16 18 21 22 22 22 24 25 25 25 24 23 22 22 21 19 17 16 15 14 13 13 12 12 13 12 10 9 9 8 8 8
20 21 19 16 15 14 13 12 12 12 12 12 13 14 12 11 11 9 7 6 5 5 4 3 3 3 4 4 4 5 6 7 7 8 9 9 10 10 11 12 13 14 14 14 14 15 15 15 14 14 15 15 16 17 18 20 22 23 24 25 27 28 28 29 29 27 26 25 23 21 18 16 15 14 14 13 13 13 13 12 10 9 9 9 9
20 21 18 15 14 14 14 14 14 14 13 14 14 13 11 11 10 8 7 5 5 4 4 4 4 4 4 4 5 6 7 7 8 8 9 9 10 10 11 12 13 14 15 15 16 15 15 15 15 15 15 15 16 17 18 20 21 23 24 25 27 29 31 31 32 31 29 28 26 24 21 18 16 16 16 15 14 13 13 13 11 10 10 11 11
19 19 17 15 14 15 15 15 15 14 14 14 14 12 11 10 8 7 6 5 5 5 5 5 5 5 5 5 6 6 7 7 7 7 8 9 9 10 10 11 12 13 14 15 15 15 15 15 15 15 16 16 16 16 17 19 20 22 23 24 25 27 28 30 31 31 30 29 28 26 24 19 16 17 18 17 16 14 14 14 13 11 11 12 12
17 17 16 16 15 16 16 16 15 14 13 13 13 12 10 9 7 6 6 6 6 5 5 5 5 5 5 6 6 6 5 6 6 7 7 7 8 8 9 10 11 12 13 14 15 15 15 15 15 16 16 16 15 14 15 18 19 20 22 23 25 26 26 27 28 28 28 28 28 27 25 21 17 17 19 20 18 16 14 15 14 12 13 13 13
16 16 17 18 17 18 17 16 16 14 13 12 11 11 10 8 7 7 7 6 5 5 4 4 5 4 4 5 4 4 4 5 6 6 6 6 7 8 9 10 11 13 13 14 15 15 16 16 16 16 17 17 16 15 15 17 19 20 21 22 23 25 26 27 27 27 28 27 27 27 26 26 26 23 22 22 21 18 16 16 15 13 14 14 14
17 16 17 18 18 18 17 16 15 14 13 12 11 11 10 8 8 8 7 5 4 4 3 3 2 2 2 2 3 4 5 6 6 6 7 7 8 9 10 11 12 13 13 14 15 15 16 17 17 17 17 18 18 18 17 18 19 20 21 22 23 24 25 26 27 28 29 28 28 27 27 28 30 27 25 25 23 20 18 17 16 15 15 16 15
17 17 17 18 18 17 17 16 15 14 14 13 12 11 10 9 8 7 5 4 3 2 1 1 1 1 1 2 3 4 5 6 7 8 8 9 9 10 10 11 12 12 13 14 15 15 16 17 18 18 18 19 19 19 19 19 20 20 21 22 22 23 24 25 25 26 27 28 27 27 27 27 27 26 26 27 25 22 20 19 18 17 16 16 16
18 18 18 17 17 17 17 16 15 15 14 13 12 11 10 9 8 6 5 3 2 1 0 0 1 1 2 3 4 5 5 6 7 7 8 9 9 10 10 11 12 13 14 15 16 16 17 17 18 19 19 20 20 19 19 20 20 21 22 23 22 23 23 23 23 23 24 25 25 26 28 27 26 26 26 26 26 24 22 20 19 18 16 15 16
18 19 18 17 17 17 17 16 16 15 14 13 11 10 9 7 7 5 3 2 1 0 0 1 1 1 3 5 6 6 7 7 7 8 9 9 10 11 12 13 14 15 15 16 16 17 17 17 18 18 19 19 19 19 18 19 20 20 21 21 22 23 23 22 22 22 22 22 23 24 25 25 25 26 26 26 27 26 23 22 21 20 18 16 15
18 19 18 17 17 17 16 16 15 14 13 12 10 9 7 6 6 4 3 2 1 1 1 1 1 1 2 4 6 7 9 9 10 10 11 12 12 13 14 14 14 15 15 15 16 17 17 18 18 19 19 19 20 20 19 19 20 20 20 20 21 21 22 22 22 22 21 21 23 23 23 23 22 24 26 27 27 27 25 24 24 22 21 18 15
18 18 18 16 16 16 15 15 14 13 11 10 9 8 8 6 5 4 4 3 3 2 3 3 3 4 5 6 8 9 11 12 12 13 13 13 14 14 14 14 14 14 15 16 17 18 18 18 18 19 20 21 22 22 20 19 20 21 21 20 20 19 19 19 20 20 18 17 19 21 21 21 20 21 24 26 27 27 27 26 26 24 23 21 18
18 18 17 15 14 15 14 14 13 12 11 10 10 9 8 6 5 5 4 4 4 4 4 5 5 6 7 8 10 12 13 13 13 14 14 14 14 14 14 14 14 15 17 19 20 20 20 19 19 19 21 23 23 24 23 21 21 21 19 19 18 17 17 16 16 17 16 16 17 18 20 21 21 21 22 24 25 27 29 28 27 27 25 23 21
17 17 16 14 14 14 14 14 13 12 12 11 11 9 8 6 6 6 5 5 5 5 5 4 6 7 9 10 12 13 14 14 14 14 15 15 15 16 16 16 16 18 20 21 23 23 23 22 21 19 20 21 23 24 25 24 24 23 22 21 18 14 16 18 16 16 17 17 16 16 18 19 21 23 23 24 25 26 28 28 27 29 27 24 22
17 16 15 14 14 13 14 14 13 12 11 11 10 9 8 7 6 5 5 4 3 3 2 4 7 8 10 12 13 13 14 14 14 15 15 16 16 16 17 18 19 20 22 23 24 25 25 25 23 20 19 20 21 23 24 25 25 25 24 25 25 22 22 20 17 16 18 18 17 18 19 19 21 23 24 26 26 27 27 27 28 29 29 27 24
17 16 15 14 14 14 14 13 12 11 10 10 9 7 6 5 5 3 3 2 1 2 4 7 7 9 11 13 13 14 14 14 14 15 16 16 16 17 18 19 20 21 22 23 25 25 26 26 24 21 19 19 20 21 23 23 25 26 24 24 28 28 26 23 20 18 19 20 19 19 20 20 21 22 23 25 27 28 28 28 28 29 31 31 27
16 16 15 14 13 13 13 12 11 10 9 9 8 6 4 3 2 1 1 0 2 5 8 9 9 10 12 13 14 14 14 14 15 15 16 16 16 16 18 19 20 21 23 23 24 25 25 26 24 21 18 18 20 20 21 22 23 25 24 24 27 25 23 25 25 22 22 22 21 20 20 20 21 22 22 23 24 27 29 30 30 29 31 34 30
16 15 15 14 13 12 12 11 10 8 8 7 6 4 3 2 1 0 1 3 5 8 10 11 11 12 12 13 13 14 14 14 15 15 15 15 15 16 18 19 20 20 22 22 23 24 24 24 23 20 17 17 19 19 20 22 22 23 22 23 25 25 24 22 22 22 23 24 24 22 20 18 20 22 23 24 24 25 27 30 32 31 30 33 32
16 15 15 15 13 12 11 10 9 7 7 6 4 3 3 2 0 2 4 6 7 9 10 11 12 12 12 12 13 13 14 13 13 13 13 14 15 16 17 18 19 19 20 22 22 23 23 22 20 18 17 18 19 19 19 21 21 22 21 21 21 23 24 19 16 18 21 24 26 25 21 20 22 23 23 24 25 25 27 29 31 32 32 31 32
16 16 16 15 13 12 11 10 9 7 6 5 3 2 2 1 3 6 7 7 7 8 9 11 12 12 12 12 13 13 12 12 11 11 12 13 14 15 16 17 18 19 20 21 22 21 21 21 19 15 15 16 17 18 19 20 21 20 19 18 19 19 20 20 18 17 19 22 25 26 24 22 23 25 24 24 24 25 27 28 29 32 33 31 32
Wind_Direction
180 182 183 179 173 164 159 171 161 144 138 137 136 134 133 131 127 124 123 122 122 122 121 120 118 118 116 116 116 117 114 110 108 111 113 112 110 108 107 107 107 108 109 109 108 107 105 98 90 97 104 105 107 108 110 111 110 108 107 106 104 101 99 99 98 97 96 95 93 90 85 81 80 78 81 92 98 98 95 95 93 86 83 83 81
175 179 182 179 171 161 158 172 161 144 140 138 138 138 135 132 129 126 125 124 125 124 122 121 118 117 115 116 116 115 112 110 113 116 114 112 110 109 108 107 107 108 111 112 113 111 108 100 95 105 107 104 105 107 110 111 110 109 109 109 107 104 101 97 94 90 91 91 89 87 83 81 84 81 84 93 99 103 100 98 94 87 86 87 84
172 175 178 176 168 159 160 171 160 145 141 140 141 140 137 134 131 128 127 127 127 126 124 122 118 114 113 113 114 113 112 115 118 117 114 111 110 111 110 110 110 111 114 116 117 114 111 103 106 115 111 106 106 106 107 108 110 110 110 108 106 104 101 98 92 86 85 82 80 80 77 74 82 83 88 99 99 101 101 98 94 92 91 88 88
173 173 175 171 165 157 161 171 160 147 144 144 144 141 139 136 133 130 129 129 128 126 125 120 115 111 112 114 113 112 113 116 116 115 114 112 115 116 115 116 116 117 119 122 123 117 112 108 118 122 117 114 112 111 110 110 110 109 109 105 101 97 95 92 85 81 80 79 73 71 74 77 81 80 92 110 109 105 102 95 88 87 88 87 92
174 174 173 167 162 155 161 170 158 150 148 148 145 143 142 139 135 132 132 132 130 127 125 119 115 113 114 116 113 113 114 112 111 111 113 115 118 119 118 119 119 124 128 132 132 122 112 114 124 125 123 123 121 122 118 114 110 107 107 99 93 90 87 76 63 67 85 88 78 75 83 90 89 84 93 109 119 119 109 97 88 86 89 90 92
174 175 171 165 160 153 162 168 160 155 152 150 146 145 145 142 138 134 135 134 133 128 125 120 118 117 115 118 116 114 112 109 108 105 104 108 110 109 109 111 118 131 145 146 141 127 118 125 131 127 125 128 128 127 119 109 104 105 104 94 88 81 69 52 39 54 105 102 88 88 92 91 90 90 94 102 113 124 121 113 112 108 105 98 94
175 175 168 165 159 153 162 166 163 159 154 152 147 147 147 145 140 137 138 137 133 127 124 123 120 119 118 120 116 112 112 109 105 102 100 102 100 101 102 106 115 130 151 152 143 132 127 134 138 134 131 134 137 131 114 101 100 101 98 93 87 76 63 51 46 72 113 110 100 102 100 97 94 93 94 97 106 117 123 124 123 118 111 105 102
176 173 167 165 158 154 162 167 167 162 155 152 150 150 149 148 144 142 142 138 133 127 125 125 122 121 124 121 113 113 115 111 106 102 100 98 97 97 97 99 109 127 146 144 135 136 134 137 140 142 142 142 143 130 109 102 100 95 97 99 90 79 69 60 62 88 114 113 107 106 102 97 88 88 92 95 102 111 115 117 118 115 112 110 107
175 170 167 163 157 158 163 169 170 164 156 153 153 151 151 151 148 147 146 140 133 130 129 127 124 125 125 116 112 115 115 112 106 101 99 98 97 95 90 90 97 116 134 129 124 133 138 139 139 141 143 139 132 113 106 106 102 98 100 101 92 83 75 71 77 93 109 112 107 104 100 90 78 80 89 96 101 108 114 117 117 116 116 114 111
175 170 166 163 159 162 166 170 172 167 157 155 156 153 154 154 152 154 151 144 137 135 134 129 126 127 120 114 114 116 113 110 106 102 102 99 96 92 86 86 89 102 117 119 119 131 139 140 137 137 134 124 112 106 108 108 104 101 97 93 87 80 74 77 87 97 104 106 103 100 97 87 76 76 85 95 102 109 115 120 120 120 119 117 116
175 171 167 165 162 166 169 171 174 169 160 157 158 156 155 155 157 158 156 152 145 141 139 133 129 126 117 115 116 115 114 109 105 103 100 96 93 90 86 84 86 92 101 108 116 129 137 136 135 133 127 116 111 110 110 108 104 98 91 85 80 75 72 76 85 95 99 99 97 93 90 83 73 75 86 94 102 110 115 119 121 121 120 117 117
176 172 169 167 166 169 171 172 174 172 164 159 158 157 156 156 161 162 162 159 155 150 146 137 129 125 119 117 120 121 116 108 106 104 99 95 91 87 85 82 82 85 92 100 112 123 130 132 133 132 126 117 114 112 110 106 100 93 86 80 76 73 73 75 79 84 87 88 87 85 86 86 88 92 95 97 101 105 110 114 115 116 117 114 112
176 174 171 168 169 171 173 173 175 175 168 160 157 156 157 159 163 166 166 164 163 156 145 136 128 127 125 124 130 128 115 108 107 104 100 95 89 85 83 81 79 81 87 96 111 123 131 133 133 132 125 120 116 112 108 101 95 90 84 78 75 74 74 74 77 77 77 75 73 70 68 75 102 114 109 103 104 106 106 105 106 109 110 110 108
179 175 173 171 172 173 174 176 177 177 171 161 155 155 159 161 164 167 167 167 168 158 143 136 131 131 132 132 139 130 117 111 107 102 100 95 89 86 83 81 79 79 84 94 110 123 132 134 134 131 125 119 114 110 103 95 92 89 82 77 75 74 75 74 74 74 72 70 67 61 56 51 57 104 122 120 120 118 114 111 108 107 105 107 109
183 179 176 174 175 175 175 177 179 178 172 163 155 157 160 162 164 165 168 168 168 159 145 139 137 136 133 136 144 131 119 112 107 103 100 96 92 89 86 83 79 78 82 93 110 124 132 136 137 136 132 119 108 102 97 94 91 85 79 76 74 73 75 74 71 70 68 66 63 58 52 47 42 49 82 109 127 132 125 122 123 121 117 115 118
185 182 180 178 178 179 176 177 180 179 174 165 158 159 160 162 165 165 169 170 169 164 151 146 147 144 139 143 151 133 118 113 110 106 101 98 95 92 89 85 82 79 81 93 113 129 137 142 145 149 152 128 99 92 93 93 87 79 76 74 72 71 74 73 69 67 66 63 62 58 51 45 43 41 40 48 86 132 134 127 129 136 136 144 148
185 184 182 181 183 182 179 177 181 181 175 169 163 162 161 164 167 169 172 171 171 170 158 153 156 153 152 154 151 132 117 112 110 107 103 102 99 96 94 90 87 84 84 97 119 137 145 150 156 166 180 167 100 89 88 87 82 76 73 74 71 68 71 71 68 66 65 63 61 61 56 48 44 40 34 34 48 77 100 120 120 110 103 159 165
186 186 185 185 185 185 183 181 184 184 178 172 169 166 164 166 169 173 175 172 172 174 165 157 157 155 157 157 150 134 121 113 104 102 105 107 107 104 100 96 93 91 92 103 127 148 157 163 170 185 201 224 235 94 90 80 76 76 74 74 70 65 66 67 65 65 64 62 60 61 59 53 48 41 34 30 32 33 24 14 348 330 322 303 186
189 187 187 187 187 188 186 186 188 186 181 176 175 171 168 169 170 174 175 175 176 176 171 166 161 157 157 155 150 138 124 119 107 101 107 112 116 115 112 106 102 102 105 113 138 161 173 181 189 205 217 233 257 266 108 88 73 77 78 75 68 62 60 62 62 63 63 60 57 58 57 52 47 41 36 32 29 22 12 5 344 320 308 302 290
188 186 187 190 190 190 189 189 190 188 184 179 180 176 172 173 172 174 174 178 182 178 171 171 173 167 165 159 148 132 116 101 89 86 92 105 117 121 124 119 117 117 121 134 152 174 188 197 206 220 231 239 254 270 272 256 214 92 82 74 67 60 54 57 62 62 63 61 57 55 53 51 44 39 35 32 31 26 14 5 351 332 319 301 287
182 183 188 192 191 191 190 191 192 192 186 182 183 180 177 177 175 174 174 179 185 184 172 167 172 166 158 158 151 143 133 71 39 29 39 52 86 111 140 135 136 138 141 155 168 186 196 205 214 227 238 244 251 261 270 274 269 271 42 57 43 46 44 47 62 63 61 59 57 52 49 47 43 39 33 29 27 24 14 1 350 338 324 304 287
177 181 188 192 191 190 191 193 195 194 188 185 185 184 183 182 179 175 175 179 183 186 178 165 155 141 132 147 159 167 212 355 2 351 2 355 358 12 214 169 169 165 170 179 184 196 205 212 219 229 238 245 250 254 262 271 273 274 280 297 339 355 8 18 47 64 62 54 52 50 46 42 38 36 29 21 17 13 7 357 348 336 323 313 299
177 182 186 188 189 189 191 195 196 196 191 188 188 187 184 182 182 177 176 179 182 182 173 164 160 154 150 160 175 186 247 300 315 321 330 330 326 326 314 284 226 204 203 202 204 206 213 219 224 231 238 245 248 250 257 265 269 269 271 274 287 305 323 334 342 32 53 46 44 44 42 37 29 28 21 12 6 0 357 353 348 339 322 312 305
178 182 183 185 188 190 191 194 197 198 194 193 192 185 179 180 182 179 177 176 177 177 170 171 177 172 167 173 189 199 219 249 295 324 335 333 322 322 323 314 281 248 238 224 223 221 223 226 229 234 238 244 247 248 252 260 265 264 265 268 273 282 297 310 310 314 343 7 18 28 33 28 21 19 13 4 357 351 348 344 342 338 326 313 301
177 179 181 184 188 190 193 195 196 197 196 195 192 183 175 175 177 176 172 166 165 167 167 166 162 146 136 145 164 176 173 167 171 348 351 343 337 344 351 347 338 306 278 255 242 234 234 234 233 236 239 242 245 246 248 255 263 264 263 263 266 272 279 289 294 295 304 323 332 351 8 11 7 7 5 357 349 343 338 334 334 334 328 316 301
176 177 181 184 187 189 193 196 195 195 195 192 187 179 171 168 169 169 163 158 155 151 149 143 135 126 125 129 139 150 151 147 88 24 10 350 340 345 342 338 335 325 305 287 270 250 243 241 239 240 240 242 244 245 247 250 256 262 264 262 264 266 269 274 277 282 291 302 309 322 333 344 348 347 352 349 341 336 329 326 327 329 326 315 303
175 177 181 183 184 188 193 195 194 193 191 185 180 173 166 161 159 159 153 150 147 141 135 132 130 124 122 115 109 123 117 81 34 21 8 348 329 323 313 312 313 310 302 292 288 278 264 252 247 245 244 245 245 246 247 248 250 255 260 261 261 263 264 264 265 271 278 286 293 303 311 317 324 327 337 338 333 330 325 318 316 321 322 313 303
175 179 181 183 185 188 191 192 190 190 186 178 172 165 159 154 150 147 144 143 140 136 132 130 131 123 114 95 73 59 21 353 347 342 335 325 315 308 302 303 301 299 295 290 287 285 284 272 259 251 248 249 249 250 249 250 249 249 254 257 258 259 260 259 260 265 271 277 280 287 295 299 303 310 320 327 327 325 318 309 306 311 315 311 305
179 181 181 183 186 189 190 188 184 182 177 169 165 160 153 147 144 141 140 141 138 135 131 127 127 120 110 96 62 352 332 323 321 318 318 316 313 312 311 313 307 299 293 291 288 283 281 278 274 264 255 252 252 254 254 255 252 249 249 252 256 257 257 258 260 264 270 274 275 277 283 287 289 294 304 315 319 318 309 304 303 303 305 309 311
182 181 182 184 186 188 187 183 177 173 166 160 161 156 150 145 142 142 140 140 137 133 127 128 133 132 124 99 280 296 302 307 313 312 312 312 311 314 316 317 312 304 295 288 285 280 276 274 276 274 267 260 255 255 256 259 258 253 247 247 252 255 256 259 263 266 269 273 274 274 276 279 279 279 290 303 310 311 305 297 297 296 292 294 306
184 183 184 185 184 184 182 177 168 164 159 156 156 152 148 143 141 142 143 140 138 136 134 145 156 155 190 268 272 286 296 303 307 305 305 306 308 312 313 313 309 305 300 291 286 283 281 278 274 269 265 262 260 258 256 256 256 256 251 247 247 251 255 259 263 268 270 272 273 272 271 273 272 270 279 291 301 305 302 294 287 284 277 275 291
187 187 186 184 180 179 176 171 163 161 159 154 151 149 146 141 142 147 148 145 144 149 156 164 176 210 254 268 279 290 295 298 298 298 300 302 306 307 308 308 304 302 301 298 296 294 292 290 283 273 266 262 260 259 258 256 254 254 252 250 248 249 254 259 263 267 272 272 271 270 268 267 267 264 268 280 293 298 297 292 285 275 264 265 278
188 187 186 181 176 174 171 166 163 161 158 155 151 148 146 145 150 157 155 154 160 168 175 187 219 248 267 280 289 291 290 291 292 295 297 298 300 301 301 300 299 298 299 298 298 298 297 294 289 282 276 269 264 261 260 259 256 254 252 250 250 251 255 259 262 264 269 271 269 270 267 262 260 259 260 268 281 289 290 287 284 273 259 259 265
185 184 182 177 172 171 168 165 163 162 159 158 155 152 151 152 156 161 163 169 176 184 195 216 238 255 274 284 283 282 283 286 289 293 296 300 302 303 302 298 297 297 298 298 297 297 296 294 291 286 282 277 272 268 264 261 259 258 255 252 252 254 256 259 261 262 265 267 265 267 268 264 261 260 257 260 270 279 283 281 278 271 257 255 260
181 181 179 174 171 170 167 166 165 163 161 160 160 158 156 156 159 164 171 179 189 202 217 234 250 265 278 277 273 274 280 286 292 300 304 307 308 309 308 303 300 298 299 300 301 302 301 297 294 291 287 282 276 271 267 264 261 260 260 258 257 258 260 261 262 263 263 262 261 263 267 266 265 264 257 254 261 269 276 277 272 266 259 255 258
177 178 178 174 172 170 167 168 169 167 164 162 164 164 162 163 166 172 181 191 203 218 231 246 259 267 272 268 270 275 283 292 299 305 304 305 308 309 309 304 302 301 301 302 304 307 306 303 300 296 292 287 279 273 269 268 266 265 263 262 262 262 263 264 265 265 263 261 260 261 263 264 267 269 262 253 254 261 267 271 268 261 261 260 261
174 175 175 174 173 170 169 172 173 170 167 165 166 168 170 173 178 187 195 204 216 234 247 254 257 260 265 270 279 288 295 303 303 300 298 300 306 309 308 305 304 303 303 305 306 307 307 306 304 300 296 291 285 279 274 271 270 269 268 266 265 264 264 265 266 266 265 264 263 263 262 262 264 267 264 253 249 253 259 265 264 256 258 261 263
172 171 171 172 173 171 171 175 175 174 173 170 171 173 177 182 190 200 205 213 223 240 249 252 255 252 267 283 295 302 306 306 301 297 298 304 310 313 313 310 307 306 305 306 306 306 306 306 305 304 300 295 291 286 280 276 274 273 272 272 270 268 266 265 265 265 265 265 266 267 264 262 262 261 259 252 247 248 252 258 258 252 252 257 260
173 172 170 170 172 172 172 175 177 178 177 177 178 178 181 188 197 204 209 216 218 231 238 223 261 268 284 294 297 300 306 302 299 302 306 312 316 318 317 313 310 308 307 307 307 307 306 305 304 303 300 297 295 291 287 282 279 277 275 275 275 273 270 268 266 265 265 265 265 266 264 262 260 257 254 248 244 245 248 251 252 250 248 250 255
175 175 172 171 172 173 175 176 179 181 180 181 182 182 185 193 202 201 199 205 199 206 263 15 338 314 292 282 281 289 304 311 313 318 320 323 322 319 318 316 317 316 314 313 311 308 305 303 301 300 299 297 295 293 290 286 283 281 278 277 276 275 273 270 268 266 265 265 265 265 264 261 256 253 250 245 243 241 244 246 247 247 244 244 248
176 176 175 174 174 176 178 178 180 181 182 183 182 183 190 199 203 191 178 185 173 181 10 39 18 304 275 277 289 305 324 333 332 331 329 328 325 323 322 322 323 322 319 316 312 309 306 304 301 298 295 292 290 290 290 289 287 285 283 283 280 277 273 271 268 266 264 264 264 263 264 262 255 250 246 244 243 239 239 243 244 244 241 238 241
176 177 177 177 175 177 180 179 180 181 182 182 179 181 187 191 190 181 179 186 164 126 95 69 41 337 313 318 329 338 343 341 336 334 333 331 329 328 328 329 329 326 323 320 317 315 313 310 305 300 296 291 288 287 286 286 286 287 290 290 288 284 279 275 271 267 264 264 265 265 264 261 256 250 245 242 240 237 238 239 240 241 240 236 233
175 177 178 177 175 177 180 179 180 181 182 179 177 181 183 182 180 178 181 166 129 102 78 50 29 10 358 353 347 344 340 337 337 336 336 335 334 335 336 336 333 328 325 323 322 321 317 312 307 303 299 295 291 290 286 278 277 285 288 283 283 286 286 283 278 274 271 268 267 266 264 260 256 252 247 243 238 236 236 235 235 237 238 236 232
174 176 178 176 176 178 178 176 176 175 177 178 180 184 180 178 169 159 150 122 96 61 44 35 19 1 350 345 341 341 341 339 339 339 339 339 338 339 338 336 333 329 328 327 327 326 321 315 310 304 301 298 295 293 289 281 276 280 280 274 274 277 277 278 281 280 281 279 272 267 264 261 257 253 249 247 242 238 236 234 234 235 235 234 230
173 177 178 177 177 178 175 171 169 169 174 179 183 183 174 166 150 134 114 88 65 42 33 13 350 339 336 338 341 344 344 343 342 341 340 339 338 338 336 334 333 332 331 330 328 326 324 320 315 308 302 299 296 294 292 288 283 278 276 273 269 267 270 275 279 281 284 285 279 273 268 264 261 256 252 250 246 241 238 234 234 235 236 233 228
173 176 178 176 175 178 177 170 165 167 174 179 179 176 166 149 128 111 95 82 61 48 16 332 328 332 338 341 343 342 341 341 341 339 337 335 335 334 333 332 332 331 330 328 327 326 325 324 320 312 304 298 295 294 293 291 286 279 276 275 273 271 271 273 274 276 282 283 277 275 272 265 264 260 254 249 245 243 240 236 236 236 237 234 227
175 176 176 176 177 179 179 171 167 172 177 178 170 162 151 125 105 100 105 113 81 7 339 335 337 341 344 340 336 332 333 335 334 332 332 331 330 329 330 330 330 330 328 327 328 329 328 326 322 312 304 301 297 293 291 291 288 283 278 277 281 279 270 266 265 267 273 276 275 275 273 267 263 261 255 248 243 243 242 240 239 237 236 234 226
177 175 170 174 178 178 178 171 170 177 174 167 156 144 129 106 109 134 122 128 340 340 339 342 340 337 336 333 329 329 329 328 326 326 327 328 329 329 330 331 330 329 329 330 331 331 330 327 322 314 306 302 298 293 292 291 290 291 286 281 285 286 276 264 258 262 269 272 273 273 273 269 260 257 255 252 247 245 245 244 242 240 239 237 229
177 173 167 170 174 174 176 171 168 172 163 155 152 147 144 140 157 243 312 320 333 337 337 334 327 327 330 329 326 324 325 323 323 325 328 332 334 333 333 332 331 331 332 334 334 335 334 331 328 325 318 308 302 298 295 294 294 297 295 288 283 283 287 274 255 260 269 269 270 270 268 264 258 256 255 255 255 250 249 248 246 245 243 240 234
178 174 170 170 172 175 177 171 166 166 160 158 168 169 157 151 274 312 315 324 332 332 329 322 319 325 327 323 319 321 324 325 327 329 334 339 337 336 335 334 335 336 337 337 337 338 338 339 338 330 320 312 308 304 298 299 300 299 298 296 287 280 287 289 271 266 267 263 266 269 266 258 257 262 261 260 260 254 251 251 248 245 244 241 238
179 176 173 170 172 178 177 173 171 173 173 173 181 183 164 254 300 306 312 323 329 328 324 318 320 326 324 319 321 326 331 332 332 336 342 344 341 340 340 339 340 341 341 340 339 340 342 345 344 333 321 314 313 311 305 303 305 305 303 300 296 285 281 284 281 278 273 267 268 270 269 263 260 265 267 268 266 259 254 252 249 246 244 242 240
Height
1530 1533 1534 1536 1537 1538 1540 1542 1543 1542 1542 1542 1542 1541 1541 1542 1543 1543 1544 1545 1545 1546 1546 1547 1547 1548 1549 1549 1549 1550 1550 1551 1551 1551 1551 1552 1552 1553 1553 1553 1553 1553 1553 1553 1553 1553 1554 1554 1554 1554 1554 1554 1554 1554 1554 1554 1555 1555 1555 1556 1556 1556 1556 1556 1556 1556 1556 1556 1556 1556 1556 1556 1556 1556 1556 1556 1556 1555 1555 1555 1556 1555 1555 1555 1555
1528 1532 1534 1536 1537 1539 1541 1542 1543 1543 1542 1543 1542 1542 1542 1543 1543 1544 1545 1545 1546 1547 1548 1548 1549 1549 1550 1550 1551 1551 1552 1552 1553 1553 1553 1553 1553 1554 1554 1554 1554 1554 1554 1554 1554 1554 1554 1555 1555 1555 1556 1556 1556 1555 1555 1555 1555 1556 1556 1556 1557 1557 1557 1558 1558 1558 1558 1557 1557 1557 1557 1557 1557 1556 1557 1557 1557 1556 1556 1556 1556 1556 1556 1556 1555
1529 1531 1533 1536 1538 1540 1541 1543 1543 1543 1543 1543 1543 1543 1543 1543 1544 1545 1545 1547 1547 1548 1549 1550 1550 1551 1551 1552 1552 1553 1553 1554 1554 1554 1554 1554 1554 1555 1555 1555 1555 1555 1555 1555 1555 1555 1555 1555 1556 1556 1557 1557 1557 1557 1557 1557 1557 1557 1557 1557 1558 1558 1558 1558 1559 1559 1559 1558 1558 1558 1558 1558 1558 1557 1557 1558 1558 1557 1557 1557 1557 1557 1557 1557 1556
1529 1531 1533 1536 1538 1540 1541 1543 1543 1543 1543 1543 1543 1543 1544 1544 1544 1545 1546 1547 1548 1550 1550 1551 1551 1552 1552 1553 1554 1554 1555 1555 1555 1556 1555 1555 1555 1555 1556 1556 1556 1556 1555 1555 1555 1556 1556 1556 1557 1557 1558 1558 1558 1558 1558 1558 1558 1558 1558 1559 1559 1559 1559 1559 1559 1559 1559 1559 1559 1559 1559 1558 1558 1558 1558 1558 1558 1558 1558 1558 1558 1558 1558 1558 1557
1529 1531 1533 1536 1538 1540 1542 1543 1544 1543 1543 1543 1544 1544 1544 1545 1545 1546 1547 1548 1549 1551 1551 1552 1552 1553 1554 1554 1555 1556 1556 1556 1556 1557 1557 1556 1556 1556 1556 1556 1556 1556 1556 1556 1556 1556 1556 1557 1558 1558 1558 1558 1559 1559 1559 1559 1559 1559 1559 1560 1560 1560 1560 1559 1559 1559 1559 1559 1560 1560 1560 1560 1559 1558 1558 1559 1559 1559 1558 1558 1559 1559 1559 1559 1558
1529 1532 1534 1537 1539 1540 1542 1544 1544 1543 1543 1544 1544 1545 1545 1545 1546 1547 1548 1549 1550 1552 1552 1553 1554 1554 1555 1556 1556 1557 1557 1557 1557 1557 1557 1557 1557 1557 1557 1557 1557 1556 1556 1556 1556 1557 1557 1557 1558 1559 1559 1559 1559 1560 1560 1560 1560 1560 1560 1560 1560 1560 1560 1559 1559 1559 1559 1560 1560 1561 1561 1561 1560 1559 1559 1559 1559 1559 1559 1559 1559 1559 1559 1559 1559
1530 1533 1535 1538 1539 1541 1543 1543 1544 1543 1544 1544 1545 1545 1546 1546 1547 1548 1549 1550 1551 1552 1553 1554 1555 1556 1557 1557 1557 1558 1558 1558 1558 1558 1558 1557 1557 1557 1557 1557 1557 1557 1556 1556 1557 1557 1557 1558 1559 1559 1560 1560 1560 1561 1561 1561 1561 1561 1561 1561 1561 1560 1560 1560 1559 1559 1559 1560 1561 1562 1562 1562 1561 1560 1559 1560 1560 1560 1560 1560 1560 1560 1560 1560 1560
1531 1533 1536 1538 1540 1541 1543 1543 1544 1544 1545 1545 1545 1546 1546 1547 1548 1549 1550 1551 1552 1553 1554 1555 1556 1557 1558 1558 1558 1559 1559 1559 1559 1559 1559 1558 1558 1558 1557 1557 1557 1557 1556 1556 1557 1558 1558 1559 1559 1560 1560 1560 1561 1562 1562 1562 1562 1562 1562 1562 1561 1561 1561 1560 1560 1559 1560 1560 1561 1562 1562 1562 1561 1560 1560 1560 1560 1560 1560 1560 1560 1560 1560 1560 1560
1531 1534 1537 1539 1541 1542 1543 1544 1544 1544 1545 1546 1546 1546 1547 1548 1549 1550 1551 1552 1553 1554 1555 1556 1558 1558 1559 1559 1559 1560 1560 1559 1559 1559 1559 1559 1559 1559 1558 1558 1558 1558 1557 1557 1558 1559 1559 1559 1560 1560 1561 1561 1562 1563 1563 1563 1563 1563 1563 1563 1562 1562 1561 1561 1560 1560 1561 1561 1562 1562 1563 1563 1562 1562 1561 1561 1561 1561 1561 1561 1561 1561 1561 1561 1561
1532 1535 1537 1539 1541 1542 1543 1544 1544 1545 1546 1546 1547 1547 1548 1549 1550 1550 1551 1553 1554 1555 1556 1557 1558 1559 1560 1560 1560 1560 1560 1560 1560 1560 1560 1560 1560 1559 1559 1559 1558 1558 1558 1558 1559 1559 1560 1560 1560 1561 1561 1562 1563 1563 1564 1564 1564 1564 1564 1564 1563 1563 1562 1562 1561 1561 1562 1562 1562 1563 1563 1563 1563 1563 1562 1561 1561 1561 1561 1561 1561 1561 1561 1561 1561
1532 1535 1537 1540 1541 1542 1543 1544 1545 1546 1546 1547 1547 1548 1549 1550 1551 1551 1552 1553 1554 1556 1557 1558 1559 1560 1560 1561 1561 1561 1561 1561 1561 1561 1561 1561 1561 1560 1560 1560 1559 1559 1559 1559 1560 1560 1561 1561 1561 1562 1562 1563 1563 1564 1565 1565 1565 1565 1565 1564 1564 1563 1563 1562 1562 1563 1563 1563 1563 1563 1564 1564 1564 1564 1563 1563 1562 1562 1562 1562 1562 1562 1562 1562 1562
1533 1535 1538 1540 1541 1542 1543 1544 1545 1546 1547 1548 1548 1549 1550 1551 1551 1552 1553 1554 1555 1556 1557 1559 1560 1561 1561 1561 1562 1561 1561 1561 1561 1562 1562 1561 1561 1561 1560 1560 1560 1560 1560 1560 1560 1561 1562 1562 1562 1563 1563 1563 1564 1565 1565 1566 1566 1566 1565 1565 1564 1564 1564 1563 1564 1564 1564 1564 1564 1564 1565 1565 1564 1564 1564 1564 1564 1564 1563 1563 1563 1563 1563 1562 1562
1533 1536 1538 1539 1541 1542 1543 1545 1546 1547 1548 1548 1549 1550 1551 1551 1552 1553 1554 1555 1556 1557 1558 1559 1560 1561 1561 1562 1562 1562 1562 1562 1562 1562 1562 1562 1562 1562 1561 1561 1561 1561 1561 1561 1561 1562 1563 1563 1563 1563 1564 1564 1565 1565 1566 1566 1566 1566 1566 1565 1565 1565 1564 1564 1565 1565 1565 1565 1565 1565 1566 1565 1565 1565 1565 1565 1565 1564 1564 1564 1564 1563 1563 1563 1563
1534 1536 1538 1540 1541 1542 1544 1545 1546 1547 1548 1549 1550 1551 1551 1552 1553 1553 1554 1555 1556 1558 1559 1560 1561 1561 1562 1562 1562 1562 1562 1562 1562 1563 1563 1563 1563 1562 1562 1562 1562 1562 1562 1562 1562 1562 1563 1564 1564 1564 1564 1565 1565 1566 1566 1567 1567 1566 1566 1566 1566 1565 1565 1565 1565 1565 1565 1566 1566 1566 1566 1566 1566 1566 1565 1565 1565 1565 1565 1564 1564 1564 1564 1564 1564
1535 1536 1538 1540 1541 1543 1544 1545 1547 1548 1549 1550 1551 1551 1552 1552 1553 1554 1555 1556 1557 1558 1559 1560 1561 1562 1562 1562 1562 1562 1562 1562 1563 1563 1563 1563 1563 1563 1563 1563 1563 1563 1563 1563 1563 1563 1564 1565 1565 1565 1565 1565 1566 1567 1567 1567 1567 1567 1567 1567 1566 1566 1566 1566 1566 1566 1566 1566 1566 1566 1566 1566 1566 1566 1566 1565 1565 1565 1565 1565 1564 1564 1564 1564 1564
1535 1537 1539 1540 1542 1543 1544 1546 1547 1548 1549 1550 1551 1552 1552 1553 1554 1554 1555 1556 1558 1559 1560 1561 1561 1562 1562 1562 1562 1562 1562 1563 1563 1563 1564 1564 1564 1564 1563 1563 1563 1563 1564 1564 1564 1565 1565 1565 1566 1566 1566 1566 1566 1567 1567 1568 1568 1567 1567 1567 1567 1567 1567 1567 1567 1566 1566 1566 1566 1566 1566 1566 1566 1566 1566 1566 1566 1565 1565 1565 1565 1564 1564 1564 1564
1536 1538 1539 1540 1542 1543 1544 1546 1547 1548 1550 1551 1551 1552 1552 1553 1554 1555 1556 1557 1558 1559 1560 1561 1561 1562 1562 1563 1563 1563 1563 1563 1564 1564 1564 1564 1564 1564 1564 1564 1564 1564 1564 1565 1565 1566 1566 1566 1566 1566 1566 1566 1567 1567 1568 1568 1568 1568 1568 1568 1568 1568 1568 1568 1567 1567 1567 1567 1566 1566 1566 1566 1566 1566 1566 1566 1566 1566 1565 1565 1565 1565 1564 1564 1563
1536 1538 1539 1540 1542 1543 1545 1546 1547 1548 1550 1550 1551 1552 1553 1553 1554 1555 1556 1557 1558 1559 1560 1561 1562 1562 1563 1563 1563 1563 1563 1564 1564 1564 1565 1565 1565 1565 1564 1564 1565 1565 1565 1565 1566 1566 1566 1567 1567 1567 1567 1567 1567 1568 1568 1568 1568 1569 1568 1568 1568 1568 1568 1568 1568 1568 1567 1567 1567 1566 1566 1566 1566 1566 1566 1565 1565 1565 1565 1565 1565 1564 1564 1564 1563
1536 1537 1539 1540 1542 1544 1545 1546 1547 1548 1549 1550 1551 1551 1552 1553 1554 1555 1556 1558 1559 1560 1561 1561 1562 1562 1563 1563 1563 1564 1564 1564 1564 1565 1565 1565 1565 1565 1565 1565 1565 1565 1565 1566 1566 1567 1567 1567 1567 1567 1567 1567 1567 1568 1568 1569 1569 1569 1569 1569 1569 1568 1568 1568 1568 1568 1568 1567 1567 1567 1566 1566 1566 1565 1565 1565 1565 1565 1565 1564 1564 1564 1564 1563 1563
1535 1537 1539 1540 1542 1544 1545 1546 1547 1548 1549 1550 1551 1551 1552 1553 1554 1555 1557 1558 1559 1560 1561 1562 1562 1563 1563 1563 1564 1564 1564 1564 1565 1565 1565 1565 1565 1565 1565 1565 1565 1566 1566 1566 1566 1566 1567 1567 1567 1567 1567 1567 1567 1568 1568 1569 1569 1569 1569 1569 1569 1569 1568 1568 1568 1568 1568 1567 1567 1567 1566 1566 1566 1565 1565 1565 1565 1565 1564 1564 1564 1563 1563 1563 1563
1535 1537 1538 1540 1542 1543 1544 1545 1546 1548 1549 1550 1551 1551 1552 1553 1554 1555 1557 1558 1559 1560 1561 1562 1563 1563 1563 1564 1564 1564 1565 1565 1565 1565 1565 1565 1565 1565 1566 1566 1566 1566 1566 1566 1566 1566 1567 1567 1567 1567 1567 1567 1567 1568 1568 1569 1569 1569 1570 1569 1569 1569 1569 1569 1568 1568 1568 1567 1567 1567 1566 1566 1565 1565 1565 1565 1564 1564 1564 1564 1563 1563 1563 1562 1562
1534 1536 1538 1539 1541 1543 1544 1545 1546 1547 1548 1549 1550 1551 1552 1553 1554 1556 1557 1558 1559 1560 1561 1562 1563 1563 1564 1564 1564 1564 1565 1565 1565 1565 1565 1565 1565 1565 1566 1566 1566 1566 1566 1566 1566 1566 1567 1567 1567 1567 1567 1567 1567 1567 1568 1568 1569 1569 1569 1569 1569 1569 1569 1568 1568 1568 1568 1567 1567 1567 1566 1566 1565 1565 1565 1564 1564 1564 1563 1563 1563 1562 1562 1562 1561
1533 1535 1537 1539 1541 1542 1544 1545 1546 1547 1548 1549 1550 1551 1553 1554 1555 1556 1557 1559 1560 1561 1562 1563 1563 1563 1564 1564 1564 1564 1565 1565 1565 1565 1565 1565 1565 1565 1565 1566 1566 1566 1566 1566 1566 1566 1566 1567 1567 1567 1567 1567 1567 1567 1567 1567 1568 1568 1568 1569 1569 1569 1569 1568 1568 1568 1568 1567 1567 1566 1566 1566 1565 1565 1564 1564 1564 1563 1563 1562 1562 1562 1561 1561 1561
1533 1535 1536 1538 1540 1542 1543 1545 1546 1547 1548 1549 1550 1552 1553 1554 1555 1556 1558 1559 1560 1561 1562 1562 1563 1563 1563 1564 1564 1564 1565 1565 1564 1564 1564 1564 1565 1565 1565 1565 1565 1565 1565 1565 1565 1566 1566 1566 1566 1567 1567 1567 1566 1566 1566 1566 1567 1567 1567 1567 1568 1568 1568 1568 1568 1568 1567 1567 1567 1566 1566 1565 1565 1565 1564 1564 1564 1563 1562 1562 1561 1561 1561 1560 1560
1533 1535 1536 1538 1540 1542 1543 1545 1546 1547 1548 1550 1551 1552 1553 1554 1556 1557 1558 1559 1560 1561 1561 1562 1562 1563 1563 1564 1564 1564 1564 1564 1564 1564 1564 1564 1564 1565 1565 1565 1565 1565 1564 1564 1565 1565 1565 1566 1566 1566 1566 1566 1566 1566 1566 1566 1566 1566 1567 1567 1566 1567 1567 1567 1567 1567 1567 1567 1566 1566 1565 1565 1565 1564 1564 1564 1563 1563 1562 1561 1561 1560 1560 1559 1559
1533 1535 1536 1538 1540 1542 1543 1544 1546 1547 1548 1550 1551 1552 1553 1554 1556 1557 1558 1559 1559 1560 1561 1562 1562 1563 1563 1563 1564 1564 1564 1564 1564 1564 1564 1564 1564 1565 1565 1565 1565 1564 1564 1564 1564 1564 1564 1565 1565 1565 1565 1565 1565 1565 1565 1565 1566 1566 1566 1566 1566 1565 1566 1566 1566 1566 1567 1566 1566 1565 1565 1564 1564 1564 1564 1563 1563 1562 1562 1561 1560 1560 1559 1559 1558
1533 1535 1536 1538 1540 1541 1543 1544 1546 1547 1548 1549 1551 1552 1553 1554 1556 1557 1558 1558 1559 1560 1561 1561 1562 1562 1563 1563 1563 1564 1564 1564 1564 1564 1564 1564 1565 1565 1565 1565 1564 1564 1564 1563 1563 1563 1563 1563 1564 1564 1564 1564 1564 1564 1564 1564 1565 1565 1565 1565 1565 1565 1564 1564 1564 1565 1565 1565 1565 1565 1565 1564 1563 1563 1563 1562 1562 1561 1561 1560 1559 1559 1558 1558 1557
1533 1535 1537 1538 1540 1541 1543 1544 1546 1547 1548 1550 1551 1552 1553 1554 1555 1556 1557 1558 1559 1560 1560 1561 1562 1562 1562 1563 1563 1563 1564 1564 1564 1564 1564 1564 1564 1564 1564 1564 1564 1564 1563 1563 1563 1563 1562 1562 1562 1563 1563 1563 1563 1563 1562 1562 1563 1563 1564 1563 1563 1563 1563 1563 1563 1563 1564 1564 1564 1564 1564 1563 1563 1562 1562 1561 1561 1560 1560 1560 1559 1558 1557 1557 1556
1534 1535 1537 1539 1540 1541 1543 1544 1546 1547 1548 1550 1551 1552 1553 1554 1555 1556 1557 1558 1559 1559 1560 1561 1561 1562 1562 1562 1563 1563 1563 1563 1563 1563 1563 1563 1563 1563 1563 1563 1563 1562 1562 1562 1562 1562 1562 1561 1561 1561 1561 1562 1562 1561 1561 1561 1561 1561 1562 1562 1562 1562 1562 1562 1562 1562 1562 1562 1562 1563 1563 1562 1562 1561 1561 1560 1560 1559 1559 1559 1558 1557 1557 1556 1555
1533 1535 1537 1538 1540 1541 1543 1544 1546 1547 1549 1550 1551 1552 1553 1554 1554 1555 1557 1558 1559 1559 1560 1560 1561 1561 1562 1562 1562 1562 1563 1563 1563 1563 1562 1562 1562 1562 1562 1562 1561 1561 1561 1561 1560 1560 1560 1560 1560 1560 1560 1560 1560 1560 1560 1559 1559 1559 1559 1560 1560 1560 1560 1560 1560 1560 1560 1560 1561 1561 1561 1561 1561 1560 1560 1559 1559 1558 1558 1557 1557 1557 1556 1555 1555
1533 1535 1537 1538 1540 1541 1543 1544 1546 1547 1549 1550 1551 1552 1552 1553 1554 1555 1557 1558 1558 1559 1560 1560 1561 1561 1562 1562 1562 1562 1562 1562 1562 1562 1562 1562 1561 1561 1561 1560 1560 1559 1559 1559 1559 1558 1558 1558 1558 1558 1558 1558 1558 1558 1558 1558 1557 1557 1557 1558 1558 1558 1558 1558 1558 1558 1559 1559 1559 1559 1559 1559 1559 1559 1559 1558 1558 1557 1557 1556 1556 1556 1555 1555 1554
1533 1535 1536 1538 1540 1541 1543 1544 1546 1547 1549 1550 1550 1551 1552 1553 1555 1556 1557 1558 1558 1559 1560 1560 1560 1561 1561 1562 1562 1562 1562 1562 1562 1562 1562 1561 1561 1560 1560 1559 1558 1558 1558 1557 1557 1557 1556 1556 1556 1556 1556 1556 1556 1556 1556 1555 1555 1556 1556 1556 1556 1556 1556 1556 1556 1556 1557 1557 1557 1557 1557 1557 1557 1558 1557 1557 1557 1556 1556 1555 1555 1555 1554 1554 1553
1532 1534 1536 1538 1540 1541 1543 1544 1546 1547 1548 1549 1550 1551 1552 1554 1555 1556 1556 1557 1558 1559 1559 1560 1560 1561 1561 1561 1561 1562 1562 1562 1562 1562 1561 1561 1560 1560 1559 1558 1557 1557 1556 1556 1556 1555 1555 1554 1554 1554 1554 1554 1554 1554 1553 1553 1553 1553 1554 1554 1554 1554 1554 1553 1553 1554 1554 1554 1555 1555 1555 1555 1555 1555 1556 1555 1555 1555 1554 1554 1554 1553 1553 1553 1553
1532 1534 1536 1538 1540 1541 1543 1545 1546 1547 1548 1549 1550 1551 1552 1553 1554 1555 1556 1557 1558 1558 1559 1559 1560 1560 1561 1561 1561 1561 1561 1562 1562 1561 1561 1560 1560 1559 1558 1557 1556 1556 1555 1555 1555 1554 1553 1553 1552 1552 1552 1551 1551 1551 1551 1550 1550 1551 1551 1551 1551 1551 1551 1551 1551 1551 1552 1552 1552 1553 1553 1552 1553 1553 1553 1553 1553 1553 1553 1552 1552 1552 1552 1552 1552
1531 1534 1536 1538 1540 1541 1543 1544 1546 1547 1548 1549 1550 1551 1552 1553 1554 1555 1556 1557 1557 1558 1558 1559 1560 1560 1561 1561 1561 1561 1561 1561 1561 1561 1560 1560 1559 1558 1557 1556 1555 1555 1555 1554 1553 1553 1552 1551 1551 1550 1549 1549 1549 1549 1548 1548 1548 1548 1548 1548 1548 1548 1548 1548 1548 1548 1549 1549 1549 1550 1550 1550 1551 1551 1551 1551 1551 1551 1551 1551 1551 1551 1551 1551 1551
1532 1534 1536 1538 1539 1541 1543 1544 1546 1547 1548 1549 1550 1551 1552 1553 1554 1555 1556 1556 1557 1558 1558 1559 1560 1560 1560 1560 1560 1561 1561 1560 1560 1560 1559 1559 1558 1557 1556 1555 1555 1554 1554 1553 1552 1552 1551 1550 1549 1548 1548 1547 1547 1547 1546 1546 1545 1545 1545 1545 1545 1545 1545 1545 1544 1545 1545 1546 1546 1547 1547 1548 1548 1549 1549 1549 1549 1549 1549 1549 1549 1549 1549 1549 1549
1532 1534 1535 1537 1539 1541 1543 1544 1545 1547 1548 1549 1550 1551 1552 1553 1554 1554 1555 1556 1557 1558 1559 1559 1560 1560 1560 1560 1560 1560 1560 1560 1559 1559 1558 1558 1557 1556 1555 1555 1554 1554 1553 1553 1552 1551 1549 1549 1548 1547 1546 1545 1545 1544 1544 1543 1543 1543 1542 1542 1542 1542 1542 1542 1541 1541 1541 1542 1543 1544 1544 1545 1545 1546 1547 1547 1547 1547 1547 1547 1547 1547 1547 1547 1547
1532 1534 1536 1537 1539 1540 1542 1544 1545 1546 1547 1549 1550 1551 1552 1552 1553 1554 1555 1556 1557 1558 1558 1559 1559 1559 1559 1559 1559 1559 1559 1559 1558 1558 1557 1557 1556 1555 1555 1554 1553 1553 1552 1552 1551 1550 1549 1548 1547 1546 1545 1544 1543 1542 1542 1541 1541 1540 1540 1539 1539 1539 1539 1538 1538 1538 1538 1538 1539 1540 1541 1541 1542 1543 1544 1544 1545 1545 1545 1545 1545 1545 1545 1546 1546
1532 1533 1535 1537 1538 1540 1542 1543 1545 1546 1547 1548 1549 1550 1551 1552 1553 1554 1555 1556 1557 1558 1558 1558 1558 1558 1558 1558 1558 1558 1558 1557 1557 1557 1556 1556 1555 1555 1554 1553 1552 1551 1551 1550 1549 1548 1548 1546 1545 1544 1543 1542 1541 1541 1540 1539 1538 1538 1537 1537 1536 1536 1536 1535 1535 1535 1535 1535 1536 1536 1537 1537 1538 1539 1540 1541 1541 1542 1543 1543 1543 1543 1543 1544 1544
1532 1533 1535 1537 1538 1540 1541 1543 1544 1545 1547 1548 1549 1550 1551 1552 1553 1554 1555 1556 1557 1557 1557 1557 1557 1557 1558 1558 1557 1557 1557 1556 1556 1556 1556 1555 1554 1554 1553 1552 1551 1550 1549 1548 1548 1547 1546 1545 1544 1542 1541 1540 1539 1539 1538 1537 1536 1535 1534 1534 1533 1533 1532 1532 1532 1532 1532 1532 1533 1533 1533 1533 1534 1535 1536 1538 1538 1539 1540 1541 1541 1541 1541 1542 1542
1532 1534 1535 1537 1538 1540 1541 1543 1544 1545 1546 1547 1549 1550 1551 1552 1553 1554 1555 1556 1556 1556 1556 1556 1556 1556 1557 1557 1556 1556 1556 1556 1555 1555 1554 1554 1553 1552 1551 1550 1549 1548 1547 1546 1546 1545 1544 1543 1541 1540 1539 1538 1537 1537 1536 1535 1534 1533 1532 1531 1530 1530 1530 1529 1529 1529 1529 1530 1530 1530 1530 1530 1531 1532 1533 1534 1535 1536 1537 1538 1539 1539 1540 1540 1540
1533 1534 1536 1537 1539 1540 1541 1543 1544 1545 1546 1547 1548 1550 1551 1552 1553 1554 1554 1555 1555 1555 1556 1556 1556 1556 1556 1556 1556 1555 1555 1554 1554 1553 1553 1552 1552 1551 1550 1548 1547 1546 1545 1544 1544 1543 1542 1541 1540 1538 1537 1536 1535 1534 1534 1533 1532 1531 1530 1529 1528 1527 1527 1526 1526 1526 1527 1527 1527 1527 1527 1527 1528 1529 1530 1531 1532 1533 1534 1535 1536 1537 1537 1538 1538
1533 1535 1536 1538 1539 1540 1541 1543 1544 1545 1546 1547 1549 1549 1551 1552 1553 1553 1554 1554 1554 1555 1555 1555 1555 1556 1555 1555 1555 1554 1554 1553 1552 1551 1551 1550 1550 1549 1548 1547 1546 1544 1544 1543 1542 1541 1540 1539 1538 1537 1535 1534 1532 1532 1532 1531 1530 1529 1528 1527 1526 1525 1524 1524 1523 1523 1524 1524 1524 1524 1524 1525 1525 1526 1527 1527 1528 1530 1531 1532 1533 1534 1535 1535 1536
1534 1535 1537 1538 1539 1540 1542 1543 1544 1545 1546 1547 1549 1549 1550 1551 1552 1553 1553 1553 1554 1554 1555 1555 1555 1555 1555 1554 1554 1553 1552 1551 1551 1550 1549 1549 1548 1547 1546 1545 1544 1543 1542 1541 1540 1539 1538 1537 1536 1535 1533 1531 1530 1529 1529 1528 1527 1527 1526 1524 1523 1523 1522 1522 1521 1520 1520 1521 1521 1522 1522 1522 1523 1524 1524 1524 1525 1526 1527 1528 1530 1531 1532 1533 1534
1534 1535 1537 1538 1539 1541 1542 1543 1544 1545 1546 1547 1548 1549 1550 1551 1552 1553 1553 1553 1554 1554 1554 1555 1555 1555 1554 1553 1553 1552 1551 1550 1550 1549 1548 1547 1546 1545 1544 1543 1543 1542 1540 1539 1538 1537 1536 1535 1534 1533 1531 1529 1528 1526 1525 1525 1525 1524 1524 1522 1522 1521 1520 1520 1520 1518 1518 1518 1518 1519 1519 1520 1520 1521 1521 1521 1522 1523 1524 1525 1526 1527 1529 1531 1532
1534 1535 1537 1538 1540 1541 1542 1543 1544 1545 1546 1547 1548 1549 1550 1551 1551 1552 1553 1553 1554 1554 1555 1555 1554 1554 1553 1552 1552 1551 1550 1550 1549 1548 1547 1546 1545 1544 1543 1542 1541 1540 1539 1538 1537 1535 1534 1532 1531 1530 1529 1527 1526 1524 1523 1522 1522 1521 1521 1520 1520 1520 1519 1518 1518 1517 1515 1515 1516 1516 1517 1517 1517 1517 1518 1518 1519 1519 1521 1522 1523 1524 1526 1528 1529
1534 1535 1537 1539 1540 1541 1543 1543 1544 1545 1546 1547 1548 1549 1550 1550 1551 1552 1553 1553 1553 1553 1554 1554 1553 1552 1552 1551 1551 1550 1549 1549 1548 1547 1546 1544 1543 1542 1542 1541 1540 1539 1538 1537 1535 1534 1532 1530 1529 1527 1526 1525 1524 1522 1521 1520 1519 1518 1518 1518 1518 1518 1518 1516 1516 1515 1513 1512 1512 1513 1513 1514 1515 1514 1514 1515 1515 1516 1517 1519 1520 1521 1522 1524 1526
1534 1535 1536 1539 1540 1542 1543 1544 1545 1546 1547 1548 1548 1549 1550 1550 1551 1552 1552 1552 1552 1552 1552 1552 1551 1551 1551 1551 1550 1549 1548 1547 1546 1545 1544 1543 1542 1541 1541 1540 1539 1538 1537 1535 1534 1532 1530 1528 1527 1525 1523 1523 1521 1520 1518 1517 1516 1515 1515 1515 1515 1515 1515 1513 1512 1512 1511 1510 1510 1510 1510 1511 1511 1511 1511 1512 1512 1513 1514 1515 1516 1518 1519 1521 1522
1534 1535 1537 1539 1540 1542 1543 1545 1546 1546 1547 1548 1548 1549 1549 1550 1551 1551 1551 1551 1551 1551 1550 1550 1550 1550 1550 1550 1549 1548 1548 1546 1545 1544 1543 1542 1541 1540 1540 1539 1538 1537 1535 1534 1532 1531 1529 1527 1525 1523 1522 1521 1519 1518 1516 1515 1514 1513 1513 1512 1511 1511 1510 1508 1509 1510 1510 1508 1507 1507 1508 1508 1508 1508 1508 1509 1509 1510 1511 1511 1512 1514 1515 1516 1519
1534 1535 1537 1539 1541 1542 1544 1545 1546 1547 1548 1548 1549 1549 1549 1550 1550 1550 1550 1550 1549 1549 1549 1549 1549 1549 1549 1549 1548 1547 1546 1545 1544 1543 1542 1542 1541 1540 1539 1538 1537 1536 1534 1533 1531 1529 1528 1525 1523 1522 1521 1519 1518 1516 1515 1513 1512 1511 1511 1510 1508 1508 1507 1506 1506 1508 1508 1506 1505 1504 1506 1506 1505 1504 1505 1505 1506 1506 1507 1508 1508 1509 1511 1513 1515
1534 1535 1536 1538 1541 1543 1544 1545 1546 1547 1548 1548 1549 1549 1550 1550 1550 1549 1549 1549 1548 1548 1548 1548 1548 1548 1547 1547 1546 1546 1545 1544 1543 1542 1542 1541 1540 1539 1538 1538 1536 1535 1533 1532 1530 1528 1527 1524 1523 1521 1520 1518 1516 1515 1513 1511 1510 1509 1508 1508 1506 1506 1506 1505 1504 1505 1505 1504 1503 1502 1502 1503 1502 1501 1501 1501 1502 1503 1504 1504 1505 1506 1507 1509 1511